TimeMDT,TemperatureF,Dew PointF,Humidity,Sea Level PressureIn,VisibilityMPH,Wind Direction,Wind SpeedMPH,Gust SpeedMPH,PrecipitationIn,Events,Conditions,WindDirDegrees,DateUTC
12:52 AM,57.0,19.9,24,29.83,10.0,SSE,8.1,-,N/A,,Overcast,160,2013-10-29 06:52:00
1:52 AM,57.0,21.0,25,29.83,10.0,South,10.4,-,N/A,,Overcast,180,2013-10-29 07:52:00
2:52 AM,54.0,21.9,29,29.83,10.0,SSE,10.4,-,N/A,,Overcast,160,2013-10-29 08:52:00
3:52 AM,55.0,21.9,28,29.82,10.0,SSW,10.4,-,N/A,,Overcast,200,2013-10-29 09:52:00
4:52 AM,55.0,21.9,28,29.83,10.0,South,8.1,-,N/A,,Mostly Cloudy,190,2013-10-29 10:52:00
5:52 AM,50.0,23.0,35,29.87,10.0,South,8.1,-,N/A,,Scattered Clouds,170,2013-10-29 11:52:00
6:52 AM,48.0,23.0,37,29.89,10.0,South,8.1,-,N/A,,Scattered Clouds,170,2013-10-29 12:52:00
7:52 AM,48.9,24.1,38,29.91,10.0,SSE,8.1,-,N/A,,Scattered Clouds,160,2013-10-29 13:52:00
8:52 AM,48.0,25.0,41,29.95,10.0,SE,8.1,-,N/A,,Scattered Clouds,140,2013-10-29 14:52:00
9:52 AM,55.0,25.0,31,29.94,10.0,SE,3.5,-,N/A,,Partly Cloudy,140,2013-10-29 15:52:00
10:52 AM,61.0,24.1,24,29.89,10.0,SSE,10.4,-,N/A,,Partly Cloudy,160,2013-10-29 16:52:00
11:52 AM,63.0,24.1,23,29.88,10.0,South,12.7,-,N/A,,Scattered Clouds,190,2013-10-29 17:52:00
12:52 PM,66.0,25.0,21,29.82,10.0,South,16.1,-,N/A,,Scattered Clouds,190,2013-10-29 18:52:00
1:52 PM,64.9,24.1,21,29.78,10.0,South,11.5,-,N/A,,Mostly Cloudy,180,2013-10-29 19:52:00
2:52 PM,66.9,23.0,19,29.74,10.0,South,20.7,26.5,N/A,,Mostly Cloudy,180,2013-10-29 20:52:00
3:52 PM,68.0,23.0,18,29.71,10.0,South,27.6,34.5,N/A,,Mostly Cloudy,180,2013-10-29 21:52:00
4:52 PM,68.0,25.0,20,29.71,10.0,South,29.9,39.1,N/A,,Mostly Cloudy,180,2013-10-29 22:52:00
5:52 PM,66.0,24.1,20,29.73,10.0,South,31.1,36.8,N/A,,Scattered Clouds,170,2013-10-29 23:52:00
6:52 PM,63.0,25.0,24,29.77,10.0,South,26.5,34.5,N/A,,Scattered Clouds,180,2013-10-30 00:52:00
7:52 PM,60.1,25.0,26,29.79,10.0,South,21.9,-,N/A,,Partly Cloudy,170,2013-10-30 01:52:00
8:52 PM,57.9,25.0,28,29.82,10.0,South,15.0,-,N/A,,Partly Cloudy,180,2013-10-30 02:52:00
9:52 PM,57.0,25.0,29,29.81,10.0,South,11.5,-,N/A,,Scattered Clouds,190,2013-10-30 03:52:00
10:52 PM,55.0,24.1,30,29.80,10.0,SSW,6.9,-,N/A,,Scattered Clouds,200,2013-10-30 04:52:00
11:52 PM,55.0,24.1,30,29.78,10.0,South,10.4,-,N/A,,Mostly Cloudy,190,2013-10-30 05:52:00